Location: *
(55.6049°S, 142.1985°W)
Time: 09:47:56
(UTC+00:00)

Cosmos 1814 Rocket - Pass Details

Date: 12 May 2021
Orbit: 745 x 786 km, 74.1° (Epoch: 13 June)

Event Time Altitude Azimuth Distance (km) Brightness Sun altitude
Exits shadow 16:09:17 - 211° (SSW) 2,936 6.6 -9.0°
Reaches altitude 10° 16:10:49 10° 213° (SSW) 2,347 6.1 -8.8°
Maximum altitude 16:16:05 61° 291° (WNW) 890 4.1 -8.1°
Drops below altitude 10° 16:21:20 10° 10° (N) 2,347 7.0 -7.4°
Sets 16:23:44 0° 13° (NNE) 3,273 7.8 -7.1°
